TimePST,TemperatureF,Dew PointF,Humidity,Sea Level PressureIn,VisibilityMPH,Wind Direction,Wind SpeedMPH,Gust SpeedMPH,PrecipitationIn,Events,Conditions,WindDirDegrees,DateUTC
12:53 AM,33.1,30.9,92,30.42,10.0,Calm,Calm,-,N/A,,Clear,0,2012-11-05 08:53:00
1:53 AM,35.1,33.1,92,30.42,10.0,Calm,Calm,-,N/A,,Clear,0,2012-11-05 09:53:00
2:37 AM,33.8,33.8,100,30.41,2.0,Calm,Calm,-,N/A,,Partly Cloudy,0,2012-11-05 10:37:00
2:44 AM,30.2,30.2,100,30.41,1.8,Calm,Calm,-,N/A,,Partly Cloudy,0,2012-11-05 10:44:00
2:53 AM,32.0,32.0,100,30.42,2.5,South,3.5,-,N/A,,Clear,190,2012-11-05 10:53:00
2:57 AM,32.0,32.0,100,30.40,3.0,South,3.5,-,N/A,,Partly Cloudy,170,2012-11-05 10:57:00
3:07 AM,32.0,30.2,93,30.40,1.5,Calm,Calm,-,N/A,,Scattered Clouds,0,2012-11-05 11:07:00
3:11 AM,30.2,30.2,100,30.40,0.8,Calm,Calm,-,N/A,,Mist,0,2012-11-05 11:11:00
3:33 AM,32.0,32.0,100,30.40,0.2,Calm,Calm,-,N/A,Fog,Fog,0,2012-11-05 11:33:00
3:50 AM,30.2,28.4,93,30.40,0.5,Calm,Calm,-,N/A,Fog,Light Freezing Fog,0,2012-11-05 11:50:00
3:53 AM,30.0,28.0,92,30.43,0.5,Calm,Calm,-,N/A,Fog,Light Freezing Fog,0,2012-11-05 11:53:00
4:03 AM,30.2,30.2,100,30.40,0.5,Calm,Calm,-,N/A,Fog,Light Freezing Fog,0,2012-11-05 12:03:00
4:16 AM,30.2,30.2,100,30.40,0.5,Calm,Calm,-,N/A,Fog,Light Freezing Fog,0,2012-11-05 12:16:00
4:39 AM,30.2,30.2,100,30.39,1.2,Calm,Calm,-,N/A,,Scattered Clouds,0,2012-11-05 12:39:00
4:42 AM,30.2,30.2,100,30.39,4.0,Calm,Calm,-,N/A,,Scattered Clouds,0,2012-11-05 12:42:00
4:53 AM,30.0,28.9,96,30.42,8.0,Calm,Calm,-,N/A,,Scattered Clouds,0,2012-11-05 12:53:00
5:09 AM,28.4,28.4,100,30.38,4.0,Calm,Calm,-,N/A,,Mostly Cloudy,0,2012-11-05 13:09:00
5:14 AM,28.4,28.4,100,30.38,0.8,Calm,Calm,-,N/A,,Mist,0,2012-11-05 13:14:00
5:23 AM,28.4,28.4,100,30.38,0.2,Calm,Calm,-,N/A,Fog,Light Freezing Fog,0,2012-11-05 13:23:00
5:38 AM,28.4,28.4,100,30.37,0.5,Calm,Calm,-,N/A,Fog,Light Freezing Fog,0,2012-11-05 13:38:00
5:53 AM,28.9,28.0,96,30.43,0.2,West,4.6,-,0.00,Fog-Snow,Light Snow,270,2012-11-05 13:53:00
6:09 AM,28.4,28.4,100,30.38,0.5,West,4.6,-,0.00,Fog,Light Freezing Fog,260,2012-11-05 14:09:00
6:33 AM,28.4,28.4,100,30.39,0.2,Variable,4.6,-,0.00,Fog,Light Freezing Fog,0,2012-11-05 14:33:00
6:53 AM,28.0,28.0,100,30.46,0.2,SE,3.5,-,0.00,Fog,Light Freezing Fog,130,2012-11-05 14:53:00
7:03 AM,28.4,28.4,100,30.41,0.5,Calm,Calm,-,N/A,Fog,Light Freezing Fog,0,2012-11-05 15:03:00
7:26 AM,30.2,30.2,100,30.40,0.2,Calm,Calm,-,N/A,Fog,Light Freezing Fog,0,2012-11-05 15:26:00
7:43 AM,32.0,32.0,100,30.40,1.0,Calm,Calm,-,N/A,,Mist,0,2012-11-05 15:43:00
7:53 AM,33.1,33.1,100,30.46,2.0,Calm,Calm,-,N/A,,Mostly Cloudy,0,2012-11-05 15:53:00
8:24 AM,35.6,35.6,100,30.41,7.0,Calm,Calm,-,N/A,,Mostly Cloudy,0,2012-11-05 16:24:00
8:34 AM,37.4,35.6,93,30.41,9.0,North,3.5,-,N/A,,Scattered Clouds,10,2012-11-05 16:34:00
8:53 AM,41.0,39.9,96,30.46,10.0,Calm,Calm,-,N/A,,Partly Cloudy,0,2012-11-05 16:53:00
9:53 AM,51.1,42.1,71,30.43,10.0,Calm,Calm,-,N/A,,Clear,0,2012-11-05 17:53:00
10:53 AM,55.0,42.1,62,30.41,10.0,Calm,Calm,-,N/A,,Clear,0,2012-11-05 18:53:00
11:53 AM,57.9,42.1,56,30.37,10.0,Variable,3.5,-,N/A,,Clear,0,2012-11-05 19:53:00
12:53 PM,60.1,43.0,53,30.36,10.0,Calm,Calm,-,N/A,,Clear,0,2012-11-05 20:53:00
1:53 PM,62.1,43.0,50,30.34,10.0,South,4.6,-,N/A,,Clear,170,2012-11-05 21:53:00
2:53 PM,64.0,44.1,48,30.33,6.0,Calm,Calm,-,N/A,,Haze,0,2012-11-05 22:53:00
3:53 PM,61.0,44.1,54,30.33,5.0,Calm,Calm,-,N/A,,Haze,0,2012-11-05 23:53:00
4:53 PM,52.0,42.1,69,30.34,10.0,ESE,3.5,-,N/A,,Clear,120,2012-11-06 00:53:00
5:53 PM,48.0,42.1,80,30.36,10.0,Calm,Calm,-,N/A,,Clear,0,2012-11-06 01:53:00
6:53 PM,43.0,39.9,89,30.37,10.0,Calm,Calm,-,N/A,,Clear,0,2012-11-06 02:53:00
7:53 PM,39.0,37.9,96,30.36,10.0,ESE,3.5,-,N/A,,Clear,110,2012-11-06 03:53:00
8:53 PM,37.0,35.1,93,30.35,10.0,Calm,Calm,-,N/A,,Clear,0,2012-11-06 04:53:00
9:53 PM,37.9,37.0,97,30.32,10.0,SW,3.5,-,N/A,,Clear,230,2012-11-06 05:53:00
10:53 PM,34.0,33.1,96,30.31,5.0,NNE,3.5,-,N/A,,Clear,30,2012-11-06 06:53:00
11:08 PM,33.8,32.0,93,30.29,2.0,NNE,3.5,-,N/A,,Clear,30,2012-11-06 07:08:00
11:19 PM,32.0,32.0,100,30.28,1.0,North,3.5,-,N/A,,Mist,10,2012-11-06 07:19:00
11:26 PM,33.8,32.0,93,30.28,0.8,Calm,Calm,-,N/A,,Mist,0,2012-11-06 07:26:00
11:30 PM,33.8,32.0,93,30.29,2.0,SSW,3.5,-,N/A,,Scattered Clouds,200,2012-11-06 07:30:00
11:32 PM,33.8,33.8,100,30.29,3.0,Calm,Calm,-,N/A,,Mostly Cloudy,0,2012-11-06 07:32:00
11:46 PM,33.8,32.0,93,30.29,5.0,Calm,Calm,-,N/A,,Scattered Clouds,0,2012-11-06 07:46:00
11:53 PM,33.1,32.0,96,30.30,10.0,Calm,Calm,-,N/A,,Scattered Clouds,0,2012-11-06 07:53:00